Weather reports worldwide

Advertisment
Sete, France (7641): temperature & dewpoint: 20.10.2020 10:00:00 - 26.10.2020 10:00:00 (CET)Sete, France (7641): wind speed & gusts: 20.10.2020 10:00:00 - 26.10.2020 10:00:00 (CET)Sete, France (7641): wind direction: 20.10.2020 10:00:00 - 26.10.2020 10:00:00 (CET)Sete, France (7641): reduced air pressure: 20.10.2020 10:00:00 - 26.10.2020 10:00:00 (CET)Sete, France (7641): visibility: 20.10.2020 10:00:00 - 26.10.2020 10:00:00 (CET)Sete, France (7641): precipitation: 20.10.2020 10:00:00 - 26.10.2020 10:00:00 (CET)
Date & Time tt [°C] td [°C] ff [km/h] ff [kn] fx [km/h] fx [kn] dd ppp [hPa] vv [km] rr [mm]
26.10.2020 10:00:00 11,7 9,6 5 3 18 10 WSW 1010,4 - 0,0
26.10.2020 09:00:00 10,9 8,5 11 6 23 12 NW 1010,2 - 0,6
26.10.2020 08:00:00 11,0 8,0 11 6 27 15 NW 1009,0 20 0,0
26.10.2020 07:00:00 10,5 8,4 9 5 26 14 NW 1008,4 20 0,2
26.10.2020 06:00:00 10,6 9,0 12 6 29 15 WSW 1008,5 - 0,0
26.10.2020 05:00:00 10,8 9,2 11 6 26 14 W 1007,3 - 0,2
26.10.2020 04:00:00 10,9 9,2 12 7 34 19 W 1007,7 20 0,2
26.10.2020 03:00:00 11,3 9,4 14 8 42 23 WNW 1007,6 - 0,8
26.10.2020 02:00:00 12,3 10,2 14 7 39 21 WNW 1008,3 - 1,0
26.10.2020 01:00:00 13,8 12,7 12 6 22 12 W 1007,1 - 0,0
26.10.2020 00:00:00 13,6 12,7 12 7 23 12 N 1006,3 - 0,0
25.10.2020 23:00:00 14,1 12,7 0 0 16 8 N 1006,7 - 0,0
25.10.2020 22:00:00 14,1 12,8 6 3 20 11 E 1006,5 - 0,0
25.10.2020 21:00:00 14,5 13,2 9 5 20 11 E 1006,3 - 0,0
25.10.2020 20:00:00 15,0 13,0 10 6 21 12 E 1006,7 - 0,0
25.10.2020 19:00:00 15,0 12,7 7 4 16 9 E 1007,7 20 0,0
25.10.2020 18:00:00 15,1 12,8 9 5 18 10 E 1007,9 - 0,0
25.10.2020 17:00:00 15,6 12,7 10 6 23 12 E 1008,4 - 0,0
25.10.2020 16:00:00 16,0 12,9 11 6 26 14 E 1008,6 20 0,0
25.10.2020 15:00:00 16,3 13,4 16 9 27 14 NE 1009,0 - 0,0
25.10.2020 14:00:00 16,3 13,0 13 7 29 16 ENE 1009,7 - 0,0
25.10.2020 13:00:00 16,5 12,6 14 8 35 19 E 1010,2 - 0,0
25.10.2020 12:00:00 17,2 12,9 19 10 40 22 NE 1011,1 - 0,0
25.10.2020 11:00:00 16,3 12,3 21 12 39 21 NNE 1011,1 - 0,0
25.10.2020 10:00:00 14,2 11,5 26 14 43 23 NNE 1011,5 - 0,0
25.10.2020 09:00:00 13,8 11,1 26 14 47 26 NNE 1011,3 - 0,0
25.10.2020 08:00:00 12,7 10,9 28 15 48 26 NNE 1011,2 - 0,0
25.10.2020 07:00:00 12,3 11,0 29 15 49 27 NNE 1011,6 20 0,0
25.10.2020 06:00:00 12,0 11,1 26 14 44 24 NNE 1012,2 - 0,0
25.10.2020 05:00:00 12,2 11,1 29 16 42 23 NNE 1012,6 - 0,0
25.10.2020 04:00:00 11,7 11,1 29 15 41 22 NNE 1013,1 - 0,0
25.10.2020 03:00:00 11,8 10,0 21 12 35 19 NNE 1014,5 - 0,0
25.10.2020 02:00:00 12,4 10,5 21 12 34 18 N 1015,0 - 0,0
25.10.2020 01:00:00 - - - - - - - - - -
25.10.2020 00:00:00 14,0 12,2 7 4 11 6 N 1016,3 - 0,0
24.10.2020 23:00:00 14,0 12,4 4 2 11 6 WSW 1016,9 - 0,0
24.10.2020 22:00:00 14,6 13,1 5 3 13 7 W 1017,3 - 0,0
24.10.2020 21:00:00 14,9 13,3 12 6 24 13 SW 1017,5 - 0,0
24.10.2020 20:00:00 15,3 13,0 17 9 25 13 SW 1018,0 - 0,0
24.10.2020 19:00:00 15,7 12,3 14 7 24 13 SSW 1018,0 20 0,0
24.10.2020 18:00:00 16,1 12,6 13 7 27 15 SSW 1018,1 - 0,0
24.10.2020 17:00:00 16,4 12,2 14 8 29 16 SSW 1018,1 - 0,0
24.10.2020 16:00:00 17,8 12,5 14 8 29 16 SSW 1018,3 20 0,0
24.10.2020 15:00:00 20,1 8,7 9 5 24 13 W 1018,5 - 0,0
24.10.2020 14:00:00 19,8 7,5 11 6 26 14 WNW 1019,2 - 0,0
24.10.2020 13:00:00 20,0 8,0 8 5 29 16 NW 1019,9 20 0,0
24.10.2020 12:00:00 19,0 7,4 14 7 33 18 NNW 1020,7 - 0,0
24.10.2020 11:00:00 17,9 7,6 13 7 42 23 NW 1021,0 - 0,0
24.10.2020 10:00:00 16,0 9,2 16 9 32 17 W 1021,2 25 0,0
24.10.2020 09:00:00 14,9 9,0 17 9 38 20 W 1021,0 - 0,0
24.10.2020 08:00:00 13,4 9,1 10 5 30 16 SW 1021,2 - 0,0
24.10.2020 07:00:00 14,1 8,9 14 8 41 22 WNW 1020,5 - 0,0
24.10.2020 06:00:00 13,2 9,4 12 6 29 16 WNW 1020,8 - 0,0
24.10.2020 05:00:00 13,1 9,3 14 8 25 13 WNW 1020,8 - 0,0
24.10.2020 04:00:00 13,3 9,5 10 6 30 16 WNW 1020,9 - 0,0
24.10.2020 03:00:00 14,1 9,3 15 8 29 15 NW 1021,1 - 0,0
24.10.2020 02:00:00 14,8 9,8 11 6 33 18 NW 1021,3 - 0,0
24.10.2020 01:00:00 15,1 10,1 11 6 32 17 WNW 1021,2 - 0,0
24.10.2020 00:00:00 15,5 10,3 16 8 30 16 NW 1020,9 - 0,0
23.10.2020 23:00:00 15,6 10,6 14 8 30 16 WNW 1020,7 - 0,0
23.10.2020 22:00:00 16,0 10,3 15 8 30 16 NW 1020,4 15 0,0
23.10.2020 21:00:00 16,4 10,5 8 5 24 13 NW 1019,5 - 0,0
23.10.2020 20:00:00 17,5 10,6 11 6 31 17 NW 1019,3 - 0,0
23.10.2020 19:00:00 17,7 11,0 13 7 31 17 WNW 1018,6 - 0,0
23.10.2020 18:00:00 17,7 11,5 14 7 32 17 NW 1017,6 - 0,0
23.10.2020 17:00:00 17,4 13,7 6 3 21 11 NW 1016,8 - 0,0
23.10.2020 16:00:00 16,5 13,8 10 5 22 12 NNW 1017,0 5 0,2
23.10.2020 15:00:00 17,4 15,4 6 3 14 7 N 1015,9 - 0,0
23.10.2020 14:00:00 18,0 15,6 5 3 14 8 E 1015,4 - 0,0
23.10.2020 13:00:00 17,1 15,6 8 4 20 11 E 1015,8 5 0,0
23.10.2020 12:00:00 19,0 16,0 12 6 18 10 N 1015,9 - 0,0
23.10.2020 11:00:00 17,3 16,2 4 2 11 6 E 1015,8 - 0,0
23.10.2020 10:00:00 16,1 15,6 4 2 8 4 S 1015,6 2,5 0,0
23.10.2020 09:00:00 15,7 15,4 3 1 10 5 S 1015,1 - 0,0
23.10.2020 08:00:00 15,5 15,0 8 5 23 13 W 1014,3 - 0,0
23.10.2020 07:00:00 16,0 15,5 15 8 35 19 S 1013,9 8 0,0
23.10.2020 06:00:00 15,9 15,3 15 8 34 18 SSE 1014,0 - 0,0
23.10.2020 05:00:00 16,1 15,8 24 13 42 23 SSE 1013,9 - 0,0
23.10.2020 04:00:00 16,3 16,1 24 13 49 26 SSE 1014,0 8 0,0
23.10.2020 03:00:00 16,5 16,2 27 15 54 29 SSE 1014,5 - 0,0
23.10.2020 02:00:00 16,5 16,0 21 12 53 28 ESE 1014,6 - 0,0
23.10.2020 01:00:00 16,6 16,1 21 11 51 28 SE 1015,1 - 0,0
23.10.2020 00:00:00 16,5 15,9 21 11 49 27 ESE 1015,9 - 0,4
22.10.2020 23:00:00 16,6 15,6 23 12 53 29 ESE 1016,4 - 0,2
22.10.2020 22:00:00 16,4 15,3 16 9 35 19 ESE 1016,7 8 0,0
22.10.2020 21:00:00 16,2 15,2 16 9 36 19 E 1016,5 - 0,0
22.10.2020 20:00:00 16,4 15,6 18 10 39 21 E 1017,0 - 0,2
22.10.2020 19:00:00 16,5 15,4 16 9 31 17 E 1017,7 8 0,0
22.10.2020 18:00:00 16,6 15,3 12 7 29 16 E 1016,9 - 0,0
22.10.2020 17:00:00 16,6 15,1 16 9 38 20 E 1017,1 - 0,0
22.10.2020 16:00:00 16,3 15,0 20 11 40 22 E 1017,0 - 0,0
22.10.2020 15:00:00 16,3 15,7 17 9 44 24 E 1017,2 - 0,0
22.10.2020 14:00:00 16,4 15,8 22 12 46 25 ESE 1017,7 - 0,0
22.10.2020 13:00:00 16,3 15,7 21 12 43 23 ESE 1018,2 - 0,0
22.10.2020 12:00:00 16,2 15,6 17 9 38 20 E 1019,0 - 0,0
22.10.2020 11:00:00 16,2 15,6 16 9 45 24 E 1019,0 - 0,0
22.10.2020 10:00:00 16,2 15,7 19 11 46 25 E 1018,3 8 0,4
22.10.2020 09:00:00 16,2 15,7 21 11 51 28 E 1017,9 - 0,6
22.10.2020 08:00:00 16,2 15,7 21 11 51 28 E 1017,4 - 0,6
22.10.2020 07:00:00 16,2 15,7 26 14 53 28 ESE 1016,5 8 1,2
22.10.2020 06:00:00 16,3 15,5 26 14 57 31 ESE 1016,3 - 0,0
22.10.2020 05:00:00 16,4 15,4 26 14 51 28 ESE 1016,5 - 0,0
22.10.2020 04:00:00 16,4 15,3 25 14 62 34 ESE 1016,5 8 0,0
22.10.2020 03:00:00 16,3 14,8 29 16 66 36 ESE 1016,1 - 0,0
22.10.2020 02:00:00 16,4 14,8 31 17 65 35 ESE 1016,4 - 0,0
22.10.2020 01:00:00 16,5 14,5 31 17 64 35 ESE 1016,2 - 0,0
22.10.2020 00:00:00 16,6 14,2 29 16 58 32 ESE 1015,9 - 0,0
21.10.2020 23:00:00 16,4 14,1 29 16 67 36 ESE 1015,8 - 0,0
21.10.2020 22:00:00 16,4 14,1 24 13 65 35 ESE 1016,1 15 0,0
21.10.2020 21:00:00 16,4 13,7 32 17 67 36 ESE 1015,4 - 0,0
21.10.2020 20:00:00 16,5 13,8 27 14 58 31 ESE 1015,9 - 0,0
21.10.2020 19:00:00 16,3 13,6 29 16 68 37 ESE 1015,5 9 0,0
21.10.2020 18:00:00 16,2 14,0 27 15 58 32 ESE 1015,3 - 0,0
21.10.2020 17:00:00 16,3 14,0 32 18 62 34 ESE 1014,8 - 0,0
21.10.2020 16:00:00 16,2 13,7 34 18 67 36 ESE 1014,4 7 0,0
21.10.2020 15:00:00 16,3 14,0 33 18 66 36 ESE 1014,5 - 0,0
21.10.2020 14:00:00 16,2 14,2 30 16 76 41 ESE 1015,2 - 0,0
21.10.2020 13:00:00 16,2 14,2 37 20 76 41 ESE 1014,5 - 0,0
21.10.2020 12:00:00 16,2 14,2 39 21 80 43 ESE 1014,8 - 0,0
21.10.2020 11:00:00 16,1 14,3 31 17 66 35 ESE 1015,8 - 0,0
21.10.2020 10:00:00 16,0 14,2 32 17 67 36 ESE 1015,7 12 0,0
21.10.2020 09:00:00 15,9 14,1 34 19 69 38 ESE 1015,4 - 0,0
21.10.2020 08:00:00 15,9 13,9 37 20 67 36 ESE 1015,0 - 0,0
21.10.2020 07:00:00 15,8 14,2 33 18 64 35 ESE 1015,2 10 0,0
21.10.2020 06:00:00 16,0 14,4 34 18 64 35 ESE 1015,1 - 0,0
21.10.2020 05:00:00 16,1 14,3 28 15 70 38 ESE 1015,8 - 0,0
21.10.2020 04:00:00 15,8 14,0 27 14 77 42 ESE 1015,3 15 0,0
21.10.2020 03:00:00 15,7 13,9 34 18 69 37 ESE 1015,3 - 0,0
21.10.2020 02:00:00 15,5 14,2 25 14 63 34 ESE 1015,8 - 0,0
21.10.2020 01:00:00 15,3 14,0 22 12 65 35 E 1016,7 12 0,0
21.10.2020 00:00:00 15,4 14,1 24 13 56 30 E 1017,1 - 0,0
20.10.2020 23:00:00 15,2 14,2 19 11 45 24 E 1017,5 - 0,0
20.10.2020 22:00:00 15,3 14,3 21 12 41 22 E 1017,7 - 0,0
20.10.2020 21:00:00 15,2 14,1 21 11 49 27 E 1017,6 - 0,0
20.10.2020 20:00:00 15,5 14,4 21 11 47 26 E 1017,8 - 0,0
20.10.2020 19:00:00 15,5 14,2 20 11 42 23 E 1018,2 10 0,0
20.10.2020 18:00:00 15,4 14,1 22 12 46 25 E 1018,3 - 0,0
20.10.2020 17:00:00 15,4 13,8 21 11 46 25 E 1018,5 - 0,0
20.10.2020 16:00:00 15,5 13,5 19 11 52 28 E 1019,1 - 0,0
20.10.2020 15:00:00 15,5 13,5 22 12 45 24 E 1019,4 - 0,0
20.10.2020 14:00:00 15,6 13,3 21 11 54 29 E 1020,1 - 0,0
20.10.2020 13:00:00 15,6 13,1 23 13 53 28 ESE 1020,6 10 0,0
20.10.2020 12:00:00 15,5 12,8 27 15 57 31 ESE 1020,9 - 0,0
20.10.2020 11:00:00 15,5 12,6 31 17 59 32 ESE 1020,5 - 0,0
20.10.2020 10:00:00 15,4 13,2 24 13 49 27 ESE 1020,5 - 0,0

tt = temperature
td = dewpoint
ff = wind speed
fx = gusts
dd = wind direction
ppp = reduced air pressure
vv = visibility
rr = precipitation

Next stations